Date String (YYYY-MM-DD hh:mm:ss) UTC,Instrument flags,Ambient pressure (hPa),Sample flow (lpm),Bypass flow (lpm),Sample temperature (°C),Ambient temperature (°C),ASC tube jacket temperature (°C),LED temperature (°C),Box temperature (°C),Sample RH (%),Span deviation,Mass concentration (μg/m³),Mass concentration (μg/m³),Mass concentration (μg/m³)
DateTimeUTC,F1_M11,P_M11,Q1_M11,Q2_M11,T1_M11,T2_M11,T3_M11,T4_M11,T5_M11,U1_M11,ZSPAN_M11,X0_M11,X2_M11,X1_M11
2023-05-25 15:00:00,,0829.7,5.01,0.00,29.0,27.5,00.0,37.3,30.6,27.1,0003.0,0017.34,0009.78,0009.02
2023-05-25 15:01:00,,0829.7,5.01,0.00,29.0,27.5,00.0,37.3,30.6,27.8,0002.9,0016.91,0009.74,0008.97
2023-05-25 15:02:00,,0829.7,5.00,0.00,29.0,27.5,00.0,37.3,30.7,27.2,0002.9,0016.42,0009.67,0008.93
2023-05-25 15:03:00,,0829.7,5.00,0.00,29.0,27.5,00.0,37.3,30.7,27.6,0002.9,0016.48,0009.65,0008.90
2023-05-25 15:04:00,,0829.7,5.00,0.00,29.0,27.5,00.0,37.3,30.7,27.2,0002.9,0016.65,0009.67,0008.90
2023-05-25 15:05:00,,0829.7,4.99,0.00,29.0,27.5,00.0,37.3,30.7,27.5,0002.8,0016.90,0009.67,0008.91
2023-05-25 15:06:00,,0829.7,4.99,0.00,29.0,27.5,00.0,37.4,30.7,27.1,0002.9,0016.92,0009.68,0008.92
2023-05-25 15:07:00,,0829.7,5.00,0.00,29.1,27.6,00.0,37.4,30.7,26.7,0002.9,0016.72,0009.67,0008.94
2023-05-25 15:08:00,,0829.7,5.00,0.00,29.1,27.6,00.0,37.4,30.7,26.8,0002.9,0016.75,0009.66,0008.93
2023-05-25 15:09:00,,0829.7,5.00,0.00,29.1,27.6,00.0,37.4,30.7,26.8,0003.0,0016.85,0009.65,0008.92
2023-05-25 15:10:00,,0829.7,5.00,0.00,29.1,27.6,00.0,37.4,30.7,27.8,0003.0,0016.13,0009.68,0008.93
2023-05-25 15:11:00,,0829.6,5.00,0.00,29.1,27.6,00.0,37.4,30.7,28.1,0002.9,0016.48,0009.73,0008.94
2023-05-25 15:12:00,,0829.7,5.02,0.00,29.1,27.6,00.0,37.4,30.7,27.9,0002.8,0016.67,0009.73,0008.96
2023-05-25 15:13:00,,0829.7,5.00,0.00,29.1,27.6,00.0,37.4,30.8,28.1,0002.7,0016.68,0009.76,0008.97
2023-05-25 15:14:00,,0829.7,4.99,0.00,29.1,27.7,00.0,37.4,30.7,27.3,0002.8,0016.85,0009.76,0008.97
2023-05-25 15:15:00,,0829.7,5.00,0.00,29.1,27.7,00.0,37.4,30.8,27.5,0002.9,0016.94,0009.75,0008.96
2023-05-25 15:16:00,,0829.7,5.00,0.00,29.1,27.7,00.0,37.4,30.8,27.6,0002.8,0017.43,0009.79,0009.01
2023-05-25 15:17:00,,0829.7,5.01,0.00,29.2,27.7,00.0,37.4,30.8,28.0,0002.7,0017.28,0009.81,0009.03
2023-05-25 15:18:00,,0829.7,5.01,0.00,29.2,27.7,00.0,37.5,30.8,27.9,0002.8,0017.39,0009.86,0009.08
2023-05-25 15:19:00,,0829.7,5.00,0.00,29.2,27.7,00.0,37.5,30.8,27.7,0003.0,0017.44,0009.93,0009.14
2023-05-25 15:20:00,,0829.7,5.00,0.00,29.2,27.7,00.0,37.5,30.8,27.4,0003.0,0017.35,0009.99,0009.22
2023-05-25 15:21:00,,0829.7,4.99,0.00,29.2,27.7,00.0,37.5,30.8,27.6,0003.0,0017.31,0010.04,0009.29
2023-05-25 15:22:00,,0829.7,5.00,0.00,29.2,27.7,00.0,37.5,30.8,27.9,0003.0,0016.94,0010.10,0009.37
2023-05-25 15:23:00,,0829.7,5.01,0.00,29.2,27.7,00.0,37.5,30.8,28.1,0003.2,0016.63,0010.18,0009.46
2023-05-25 15:24:00,,0829.7,5.01,0.00,29.2,27.7,00.0,37.5,30.8,28.4,0003.2,0016.71,0010.24,0009.53
2023-05-25 15:25:00,,0829.7,5.00,0.00,29.2,27.8,00.0,37.5,30.9,29.1,0003.1,0016.51,0010.27,0009.59
2023-05-25 15:26:00,,0829.7,4.99,0.00,29.2,27.8,00.0,37.5,30.9,29.1,0003.0,0016.35,0010.32,0009.67
2023-05-25 15:27:00,,0829.6,5.00,0.00,29.2,27.8,00.0,37.5,30.9,29.3,0003.1,0015.84,0010.38,0009.73
2023-05-25 15:28:00,,0829.7,5.00,0.00,29.3,27.8,00.0,37.5,30.9,29.7,0003.3,0015.96,0010.48,0009.82
2023-05-25 15:29:00,,0829.6,5.01,0.00,29.3,27.9,00.0,37.6,30.9,29.1,0003.3,0015.97,0010.53,0009.87
2023-05-25 15:30:00,,0829.6,5.01,0.00,29.3,27.8,00.0,37.6,30.9,29.0,0003.2,0016.27,0010.61,0009.95
2023-05-25 15:31:00,,0829.7,5.00,0.00,29.3,27.8,00.0,37.6,30.9,29.1,0003.1,0017.29,0010.77,0010.06
2023-05-25 15:32:00,,0829.6,4.99,0.00,29.3,27.8,00.0,37.6,30.9,28.8,0003.2,0017.68,0010.90,0010.16
2023-05-25 15:33:00,,0829.6,5.00,0.00,29.3,27.8,00.0,37.6,30.9,28.6,0003.1,0017.79,0010.94,0010.22
2023-05-25 15:34:00,,0829.6,5.02,0.00,29.3,27.8,00.0,37.6,30.9,29.1,0003.2,0018.40,0010.98,0010.27
2023-05-25 15:35:00,,0829.5,5.01,0.00,29.3,27.8,00.0,37.6,30.9,29.5,0003.3,0018.40,0011.01,0010.30
2023-05-25 15:36:00,,0829.6,4.99,0.00,29.3,27.9,00.0,37.6,31.0,30.0,0003.2,0018.62,0011.07,0010.35
2023-05-25 15:37:00,,0829.6,4.99,0.00,29.3,27.9,00.0,37.6,31.0,29.4,0003.2,0018.90,0011.11,0010.37
2023-05-25 15:38:00,,0829.5,5.00,0.00,29.3,27.9,00.0,37.6,31.0,29.0,0003.3,0018.93,0011.11,0010.35
2023-05-25 15:39:00,,0829.5,5.01,0.00,29.3,27.9,00.0,37.6,31.0,28.6,0003.2,0018.86,0011.06,0010.32
2023-05-25 15:40:00,,0829.4,5.01,0.00,29.3,27.9,00.0,37.7,31.0,28.3,0003.1,0018.96,0011.08,0010.32
2023-05-25 15:41:00,,0829.4,5.00,0.00,29.3,27.8,00.0,37.7,31.0,28.3,0003.1,0018.76,0011.08,0010.31
2023-05-25 15:42:00,,0829.4,4.98,0.00,29.3,27.8,00.0,37.7,31.0,28.3,0003.1,0017.97,0011.00,0010.23
2023-05-25 15:43:00,,0829.4,5.00,0.00,29.4,27.9,00.0,37.7,31.0,28.2,0003.0,0017.87,0010.91,0010.17
2023-05-25 15:44:00,,0829.3,5.02,0.00,29.4,27.9,00.0,37.7,31.0,28.4,0003.0,0018.43,0010.89,0010.13
2023-05-25 15:45:00,,0829.4,5.00,0.00,29.4,27.9,00.0,37.7,31.0,28.6,0002.9,0017.98,0010.88,0010.09
2023-05-25 15:46:00,,0829.3,4.99,0.00,29.4,27.9,00.0,37.7,31.0,28.6,0002.9,0018.08,0010.86,0010.05
2023-05-25 15:47:00,,0829.3,4.99,0.00,29.4,28.0,00.0,37.7,31.0,29.1,0003.0,0018.18,0010.84,0010.00
2023-05-25 15:48:00,,0829.3,5.00,0.00,29.4,28.0,00.0,37.7,31.1,29.3,0003.1,0018.45,0010.84,0010.02
2023-05-25 15:49:00,,0829.3,5.00,0.00,29.4,28.0,00.0,37.7,31.1,29.6,0003.0,0018.84,0010.88,0010.06
2023-05-25 15:50:00,,0829.3,5.00,0.00,29.4,28.1,00.0,37.7,31.1,29.2,0003.0,0019.19,0010.94,0010.09
2023-05-25 15:51:00,,0829.4,5.02,0.00,29.5,28.1,00.0,37.7,31.1,28.6,0003.2,0019.30,0010.90,0010.06
2023-05-25 15:52:00,,0829.4,5.00,0.00,29.5,28.1,00.0,37.8,31.1,28.1,0003.2,0019.30,0010.89,0010.07
2023-05-25 15:53:00,,0829.3,4.99,0.00,29.5,28.1,00.0,37.8,31.1,28.2,0003.2,0019.25,0010.88,0010.07
2023-05-25 15:54:00,,0829.4,4.99,0.00,29.5,28.1,00.0,37.8,31.1,29.0,0003.1,0019.16,0010.88,0010.07
2023-05-25 15:55:00,,0829.4,5.00,0.00,29.5,28.1,00.0,37.8,31.1,28.7,0003.1,0018.46,0010.89,0010.09
2023-05-25 15:56:00,,0829.3,5.01,0.00,29.5,28.2,00.0,37.8,31.2,28.9,0003.1,0018.34,0010.87,0010.10
2023-05-25 15:57:00,,0829.3,5.01,0.00,29.5,28.2,00.0,37.8,31.2,29.0,0003.0,0019.04,0010.92,0010.12
2023-05-25 15:58:00,,0829.2,5.00,0.00,29.6,28.2,00.0,37.8,31.2,28.8,0003.0,0019.07,0010.96,0010.15
2023-05-25 15:59:00,,0829.2,5.01,0.00,29.6,28.2,00.0,37.8,31.2,29.2,0003.0,0018.75,0010.99,0010.14
